Regional Weather Roundup
Issued by NWS Charleston, SC

Current Version | Previous Version | Graphics & Text | Print | Product List | Glossary On
Versions: 1 2 3 4 5 6 7 8 9 10 11 12 13 14 15 16 17 18 19 20 21 22 23 24 25 26 27 28 29 30 31 32 33 34 35 36 37 38 39 40 41 42 43 44 45 46 47 48 49 50
000 ASUS42 KCHS 230310 RWRCHS REGIONAL WEATHER ROUNDUP NATIONAL WEATHER SERVICE CHARLESTON SC 1000 PM EST SAT NOV 22 2014 NOTE: "FAIR" INDICATES FEW OR NO CLOUDS BELOW 12,000 FEET WITH NO SIGNIFICANT WEATHER AND/OR OBSTRUCTIONS TO VISIBILITY. NOT ALL STATIONS ARE QUALITY CONTROLLED BY THE NATIONAL WEATHER SERVICE. USE DATA WITH CAUTION...ESPECIALLY DEWPOINT OBSERVATIONS. SCZ027-030-031-034>040-042>050-230400- ...SOUTHEAST SOUTH CAROLINA... CITY SKY/WX TMP DP RH WIND PRES REMARKS N CHARLESTON CLOUDY 54 52 93 NE7 30.29F WATERFRONT PRK NOT AVBL MOUNT PLEASANT FAIR 57 57 100 NE3 30.30F JOHNS ISLAND MOCLDY 57 57 100 NE8 30.29F PINOPOLIS N/A 54 52 94 E8 30.23S MONCKS CORNER FAIR 54 54 100 E6 30.30F SUMMERVILLE MOCLDY 52 52 100 CALM 30.31S BEAUFORT MCAS CLOUDY 57 53 86 NE6 30.28F BEAUFORT ARPT MOCLDY 55 54 94 NE8 30.27F HILTON HEAD IS CLOUDY 57 57 100 N7 30.28S WALTERBORO MOCLDY 54 N/A N/A E7 30.29F ALLENDALE CLOUDY 55 50 82 VRB3G12 30.28F ...SOUTHERN MIDLANDS AND PEE DEE... CITY SKY/WX TMP DP RH WIND PRES REMARKS GEORGETOWN NOT AVBL KINGSTREE NOT AVBL ORANGEBURG MOCLDY 51 42 71 E7 30.30F BARNWELL MOCLDY 54 41 62 E6 30.30S AIKEN MOCLDY 52 30 43 E5 30.33F MANNING NOT AVBL COLUMBIA MOCLDY 47 35 63 CALM 30.31F SUMTER MOCLDY 43 33 68 NE5 30.30F FLORENCE MOCLDY 44 35 70 CALM 30.33F MYRTLE BEACH CLEAR 50 45 81 NE6 30.33F N MYRTLE BEACH PTCLDY 48 46 93 NE3 30.33F $$ GAZ063-065-086>088-099>101-113>116-118-119-134>141-150-230400- ...SOUTHEAST GEORGIA... CITY SKY/WX TMP DP RH WIND PRES REMARKS SAVANNAH ARPT CLOUDY 59 54 83 NE8 30.26F HUNTER AAF CLOUDY 58 57 94 E8 30.23F FORT STEWART CLOUDY 57 55 93 N2 30.25R STATESBORO NOT AVBL SYLVANIA DRIZZLE 59 54 83 E7 30.29S CLAXTON CLOUDY 59 59 100 E6 30.26F ...CSRA...CENTRAL AND FAR SOUTHEAST GEORGIA... CITY SKY/WX TMP DP RH WIND PRES REMARKS THOMSON CLOUDY 47 47 99 CALM 30.33S AUGUSTA-BUSH CLOUDY 54 32 43 E6 30.29F AUGUSTA-DANIEL CLOUDY 55 33 43 E7 30.28F SWAINSBORO CLOUDY 59 59 100 E6 30.26F VIDALIA CLOUDY 57 55 94 E12G20 30.24S HAZLEHURST CLOUDY 59 58 94 E9 30.21S ALMA CLOUDY 58 56 93 NE6 30.20F WAYCROSS RAIN 62 62 98 E9 30.19F JESUP LGT RAIN 61 59 94 E6 30.23S BAXLEY CLOUDY 59 57 94 E9 30.21F BRUNSWICK N/A 61 59 94 NE5 30.22F SAINT SIMONS CLOUDY 61 59 93 NE8 30.21F $$ SCZ027-028-034-036>038-045-046-048>050-GAZ119-141-230400- ...LAKE AND SUPPLEMENTAL COASTAL OBSERVATIONS... STATION/POSITION TIME TEMP WIND PRES WAVE SWELL AIR SEA DIR/SP/G HT/PER HT/PER/DIR (UTC) (F) (DEG/KT/KT) (MB) (FT/S) (FT/S/D) UPR LAKE MARION NOT AVBL WINYAH BAY 0200 57 60/ 7 1027.0S LAKE MURRAY 0200 53 70/ 6/ 9 1025.7F ACE BASIN NERRS 0200 56 60/ 4 1025.0S FORT PULASKI 0300 58 40/ 13/ 16 1024.7F SAPELO ISLAND NOT AVBL $$ ANZ835-935-AMZ111-154-330-350-352-354-370-450-454-472-230400- ...C-MAN AND BUOY OBSERVATIONS... STATION/POSITION TIME TEMP WIND PRES WAVE SWELL AIR SEA DIR/SP/G HT/PER HT/PER/DIR (UTC) (F) (DEG/KT/KT) (MB) (FT/S) (FT/S/D) FOLLY BEACH CMAN 0200 57 40/ 11/ 13 1026.5F BUOY 41004 0300 70 75 120/ 14/ 16 1025.1F 5/ 8 3/ 8 BUOY 41008 0300 68 64 100/ 14/ 16 1023.1F 6/ 7 3/110/ 7 CAPERS NEARSHORE 0200 58 70/ 12/ 16 N/A FRIPP NEARSHORE NOT AVBL STATION/POSITION TIME TEMP WIND PRES WAVE SWELL AIR SEA DIR/SP/G HT/PER HT/PER/DIR (UTC) (F) (DEG/KT/KT) (MB) (FT/S) (FT/S/D) 5E ST. MARYS GA 0300 62 N/A 6/ 8 FRYING PAN BUOY 0300 65 62 140/ 10/ 12 1027.5F 4/ 9 3/110/ 9 BUOY 41025 0300 63 210/ 10/ 14 1029.0R 3/ 8 2/ 60/ 8 CAPE LOOKOUT NC 0200 59 90/ 6/ 6 1028.2S BUOY 41002 0250 67 73 140/ 10/ 16 1028.0F 5/ 9 3/ 60/ 9 BUOY 41010 0300 74 78 100/ 21/ 27 1022.6S 10/ 7 3/240/14 ST AUGUSTINE FL 0300 69 120/ 19/ 21 1022.4S $$

USA.gov is the U.S. government's official web portal to all federal, state and local government web resources and services.